www.pogodaiklimat.ru

Погода и климат >> Архив погоды >> Казахстан >> Кусмурын


ПОГОДА в Кусмурыне

  • Прогноз погоды в Кусмурыне
  • Монитор погоды в Кусмурыне

АРХИВ ПОГОДЫ в Кусмурыне

Время (UTC), дата Ветер
(напр.,м/с)
 
Видим.   Явления Облачность Т
(С)
Тd
(С)
f
(%)
Тe
(С)
Тes
(С)
Комфортность P
(гПа)
Po
(гПа)
Тmin
(С)
Tmax
(С)
R
(мм)
R24
(мм)
S
(см)
21 10.02 ЮВ 2 20 км 8/0
[Ac und Cs]
-17.3 -19.2 85 -23 -23 1027.0 1012.0
00 11.02 ЮВ 3 20 км 10/0
[Ac As Cs]
-17.6 -19.5 85 -25 -25 1025.2 1010.2
03 11.02 В 3 20 км 10/10 300 м
[St]
-19.1 -21.0 85 -27 -27 1025.7 1010.7 26
06 11.02 ЮВ 3 20 км 9/9 1000 м
[Sc]
-16.6 -18.5 85 -24 -23 1028.9 1013.9 -20.6
09 11.02 ЮВ 2 20 км 10/10 1000 м
[Sc]
-12.9 -15.6 80 -18 -18 1029.4 1014.7
12 11.02 ЮВ 2 20 км 5/0
[Ac cuf Ci fib]
-13.3 -16.0 80 -18 -18 1029.7 1014.9
15 11.02 ЮВ 2 20 км 10 баллов -14.3 -16.3 85 -19 -19 1032.2 1017.3 -12.4
18 11.02 Ю 2 4000 м дымка 10/10 300 м
[St]
-12.7 -13.3 95 -17 -17 1032.0 1017.2 -12.4
21 11.02 Ю 2 1000 м дымка 10/10 300 м
[St]
-12.4 -13.0 95 -17 -17 1033.5 1018.7
00 12.02 Ю 2 500 м переохл. туман ?/? -13.6 -14.2 95 -18 -18 1032.9 1018.1
03 12.02 Ю 3 4000 м дымка {туман} 10/10 300 м
[St]
-15.0 -15.6 95 -22 -22 1034.1 1019.1 26
06 12.02 ЮВ 3 20 км {туман} 10/10 300 м
[St]
-16.6 -17.9 90 -24 -24 1035.5 1020.5 -15.0
09 12.02 Ю 3 20 км 3/0
[Ci fib]
-15.2 -16.5 90 -22 -20 1036.3 1021.3
12 12.02 ЮВ 3 20 км 3/0
[Ci fib]
-14.9 -16.2 90 -21 -21 1036.0 1021.0
15 12.02 ЮВ 3 20 км 3/0
[Ci fib]
-16.8 -18.0 90 -24 -24 1037.8 1022.7 -13.9
18 12.02 ЮВ 3 20 км 3/0
[Ci fib]
-18.6 -19.8 90 -26 -26 1038.8 1023.5 -13.9
21 12.02 ЮВ 1 20 км 10/10 300 м
[St]
-22.6 -24.4 85 -26 -26 1039.5 1024.0
00 13.02 Ю 2 1000 м дымка 10/10 300 м
[St]
-18.0 -19.2 90 -23 -23 1038.4 1023.2
03 13.02 штиль 0 500 м переохл. туман ?/? -18.6 -19.8 90 -19 -19 1038.5 1023.2 25
06 13.02 штиль 0 20 км {туман} 8/0
[Ac und Cs]
-15.4 -16.7 90 -15 -12 1039.1 1024.1 -23.0
09 13.02 штиль 0 20 км 3/0
[Ac cast Ci fib]
-14.2 -15.5 90 -14 -11 1038.9 1024.0
12 13.02 штиль 0 20 км 1/0
[Ci fib]
-14.5 -15.8 90 -15 -14 1038.1 1023.1
15 13.02 штиль 0 20 км 2 балла -18.0 -19.9 85 -18 -18 1040.5 1025.3 -12.7
18 13.02 штиль 0 20 км 3/0
[Ci fib]
-19.6 -21.5 85 -20 -20 1038.5 1023.1 -12.7
21 13.02 штиль 0 20 км 3/0
[Ci fib]
-20.2 -22.1 85 -20 -20 1038.0 1022.7
00 14.02 штиль 0 20 км 1/0
[Ci fib]
-21.2 -23.0 85 -21 -21 1035.6 1020.2
03 14.02 штиль 0 20 км 3/0
[Ci fib]
-26.2 -28.7 79 -26 -26 1034.4 1018.7 25
06 14.02 штиль 0 20 км ясно -22.6 -24.4 85 -23 -19 1033.5 1018.1 -26.2
09 14.02 штиль 0 20 км ясно -17.3 -19.2 85 -17 -13 1033.8 1018.7
12 14.02 штиль 0 20 км 1/0
[Ci fib]
-17.2 -19.8 80 -17 -17 1031.8 1016.8
15 14.02 штиль 0 20 км ясно -20.1 -22.0 85 -20 -20 1029.9 1014.7 -15.8
18 14.02 штиль 0 20 км ясно -21.5 -23.3 85 -22 -22 1028.9 1013.7 -15.8
21 14.02 Ю 1 20 км ясно -23.2 -25.0 85 -27 -27 1027.3 1012.0
00 15.02 ЮВ 2 20 км ясно -24.4 -26.2 85 -31 -31 опасность
обморожения
1024.6 1009.2
03 15.02 ЮВ 2 20 км 8/0
[As trans]
-23.3 -25.1 85 -30 -30 1023.1 1007.7 25
06 15.02 Ю 4 20 км 3/0
[Ac lent]
-19.7 -21.6 85 -29 -27 1021.9 1006.8 -25.7
09 15.02 ЮВ 4 20 км 1/0
[Ci fib]
-15.4 -18.1 80 -23 -21 1021.5 1006.7
12 15.02 Ю 3 20 км 8/0
[Ac und Ci fib]
-13.0 -15.7 80 -19 -19 1017.6 1003.0
15 15.02 ЮВ 3 20 км 9/0
[Ac und]
-14.2 -16.2 85 -21 -21 1018.7 1004.0 -12.6
18 15.02 Ю 3 20 км 9/3 1000 м
[Sc Cs]
-15.1 -16.4 90 -22 -22 1017.8 1003.0 -12.6
21 15.02 Ю 3 20 км 8/0
[Cs]
-17.4 -18.6 90 -24 -24 1017.5 1002.7
00 16.02 ЮВ 3 20 км 4/0
[Ci fib]
-19.2 -20.4 90 -27 -27 1015.7 1000.7
03 16.02 Ю 3 20 км 9/0
[Ac und Cs]
-18.0 -19.2 90 -25 -25 1015.0 1000.1 25
06 16.02 ЮВ 4 10 км слаб. снег 10/0
[As op]
-12.4 -14.4 85 -20 -19 1013.5 999.0 -19.5
09 16.02 Ю 5 20 км {снег} 10/0
[Ac und Cs]
-9.0 -11.5 82 -17 -17 1014.3 1000.0
12 16.02 ЮВ 6 20 км позёмок {снег} 10/0
[As trans Cs]
-8.8 -10.7 86 -17 -17 1011.2 997.0
15 16.02 ЮВ 4 20 км {метель} 8/0
[As trans]
-11.9 -13.2 90 -19 -19 1009.5 995.0 -8.1
18 16.02 ЮВ 3 4000 м слаб. снег {метель} 10/0
[As op]
-11.7 -13.0 90 -18 -18 1008.7 994.2 -8.1 0.0
21 16.02 ЮВ 3 4000 м слаб. снег 10/0
[As op]
-9.5 -10.1 95 -15 -15 1009.0 994.7
00 17.02 ЮВ 3 20 км {снег} 10/0
[As trans]
-10.6 -11.2 95 -17 -17 1006.1 991.8
03 17.02 ЮВ 3 20 км 10/0
[Ac und]
-11.8 -12.4 95 -18 -18 1005.3 990.9 26
06 17.02 ЮВ 3 20 км 10/0
[Ac As]
-10.9 -12.2 90 -17 -16 1004.6 990.2 -11.9 0.4
09 17.02 ЮВ 4 20 км 10 баллов -8.5 -10.4 86 -15 -15 1003.4 989.3
12 17.02 ЮВ 3 20 км {метель} 10/0
[Ac As]
-8.1 -10.4 83 -14 -14 1002.1 987.9
15 17.02 Ю 2 20 км 10 баллов -8.9 -10.4 89 -13 -13 1002.1 988.0 -6.6

 

Местоположение метеостанции Кусмурын (Костанайская область, Казахстан): широта 52.47 долгота 64.67 высота над уровнем моря 110 м.

В архиве по умолчанию представлена погода в Кусмурыне за последнюю неделю. Архивные данные за месяц целиком и за предыдущие месяцы, начиная с января 2011 года, Вы можете получить, выбрав интересующий диапазон дат из раскрывающегося списка и нажав кнопку "Ввод!".


*Определитесь, кто Вы:
робот инопланетянин человек

Внимание! Время в таблицах - всемирное. Для получения местного времени необходимо прибавить поправку, которая равна 5 ч.

Смотрите также архив погоды в соседних городах и на ближайших метеорологических станциях:

Погода в Карасу (Костанайская область, Казахстан) (61 км)
Погода в Железнодорожной (Костанайская область, Казахстан) (80 км)
Погода в Диевской (Костанайская область, Казахстан) (85 км)
Погода в Костанае 2 (Костанайская область, Казахстан) (108 км)
Погода в Караменды (Костанайская область, Казахстан) (109 км)
Погода в Костанае (Костанайская область, Казахстан) (109 км)
Погода в Сарыколе (Костанайская область, Казахстан) (111 км)
Погода в Рудном (Костанайская область, Казахстан) (118 км)
Погода в Есиле (Акмолинская область, Казахстан) (131 км)
Погода в Тоболе (Костанайская область, Казахстан) (142 км)

Пояснения к столбцам:

Ветер - указаны скорость ветра в м/с - средняя за 10 мин, порывы в срок и между сроками (в фигурных скобках) и направление, откуда дует ветер: С - северный, СВ - северо-восточный, В - восточный, ЮВ - юго-восточный, Ю - южный, ЮЗ - юго-западный, З - западный, СЗ - северо-западный.
Видимость - горизонтальная дальность видимости в метрах или километрах. При видимости от 1 до 10 км при отсутствии осадков обычно наблюдается дымка, при ухудшении видимости до 1 км и менее - туман. В сухую погоду видимость может ухудшаться дымом, пылью или мглою.
Явления - указаны атмосферные явления, наблюдавшиеся в срок или в последний час перед сроком; фигурными скобками обозначены явления, наблюдавшиеся между сроками (за 1-3 часа до срока); квадратными скобками обозначены град или гололедные отложения с указанием их диаметра в мм.
Облачность - указаны через наклонную черту общая и нижняя облачность в баллах и высота нижней границы облаков в метрах; квадратными скобками обозначены формы облаков: Ci - перистые, Cs - перисто-слоистые, Cc - перисто-кучевые, Ac - высококучевые, As - высокослоистые, Sc - слоисто-кучевые, Ns - слоисто-дождевые, Cu - кучевые, Cb - кучево-дождевые. Подробнее классификацию облаков см. в Атласе облаков (PDF).
T - Температура воздуха - температура, измеренная на высоте 2 м над землей.
Td - Температура точки росы - температура, при понижении до которой содержащийся в воздухе водяной пар достигнет насыщения.
f - Относительная влажность воздуха - влажноcть воздуха, измеренная на высоте 2 м над землей.
Te - Эффективная температура - температура, которую ощущает одетый по сезону человек в тени. Характеристика душности погоды. При расчете учитывается влияние влажности воздуха и скорости ветра на теплоощущения человека.
Tes - Эффективная температура на солнце - температура, которую ощущает человек, с поправкой на солнечный нагрев. Характеристика знойности погоды. Зависит от высоты солнца над горизонтом, облачности и скорости ветра. Ночью, в пасмурную погоду, а также при ветре 12 м/с и более поправка равна нулю.
P - Атмосферное давление - приведенное к уровню моря атмосферное давление.
Po - Атмосферное давление - измеренное на уровне метеостанции атмосферное давление.
Tmin - Минимальная температура - минимум температуры воздуха на высоте 2 м над землей.
Tmax - Максимальная температура - максимум температуры воздуха на высоте 2 м над землей.
R - Количество осадков - Количество выпавших осадков за период времени, мм. При наведении курсора мыши на число - период времени, за который выпало указанное количество осадков.
R24 - Количество осадков - Количество выпавших осадков за 24 часа, мм.
S - Снежный покров - Высота снежного покрова, см. При наведении курсора мыши на число - состояние снежного покрова и степень покрытия местности в баллах.